SL-14 R/B, 20238

Orbit data source: Space-Track

SL-14 R/B, 20238 is space debris in LEO originally from a launch on Thu, 14 Sep 1989 UTC launched from the Plesetsk Missile And Space Complex (PKMTR). Debris objects in space refer to the collection of defunct objects orbiting the Earth. Examples of debris include non-operational satellites, rocket bodies, and fragments generated from explosions, collisions, or faulty payload assembly.

Loading next visibility...
Identifier
20238, 1989-074G
Orbit
LEO
Country
Flag of CISCIS
Related business
Manufacturer
Yuzhnoe
Mission
Spacecraft
Bus & Motor
S5M, Unknown motor
Mass
1,600 kg wet, 1,600 kg dry
Launch date (UTC)
1989-09-14 (37 years ago)
Launch vehicle
Unknown
Launch site
Plesetsk Missile And Space Complex (PKMTR)
Object type
Payload
Rocket body
Debris
Shape & HBR
Cyl, 1.4 m
Radar Cross Section
7.351 m², Large (>1 m²)

Expand to show TLE details & history
Last TLE update: 18 hours ago

TLE from 18 hours ago
0 SL-14 R/B
1 20238U 89074G   26121.89705953  .00000005  00000-0 -32460-4 0  9996
2 20238  82.5961  37.1250 0040003 155.3769 273.4084 12.55324469678290
Epoch: 2026-05-01T21:31Z
TLE epoch observation values (Epoch: 2026-05-01T21:31:45.943Z)
Latitude
67.23173°
Longitude
-127.69514°
Altitude
1,452.171 km
Speed
7.143 km/s
True Right ascension
03h 40m 16s
True Declination
67° 07' 11"
Sunlit
Object was in daylight at epoch
Visualization orbit readout
Latitude
Unknown
Longitude
Unknown
Altitude
Unknown
Speed
Unknown
Apparent Right ascension
Unknown
Apparent Declination
Unknown
Sunlit
N/A
Visualization observer readout
Local Sidereal Time
23:22:50
Azimuth
Unknown
Elevation
Unknown
Doppler factor
Unknown
Orbital elements
Apogee altitude
1,470.906 km
Perigee altitude
1,408.359 km
Semi-major axis
7,817.77 km
Eccentricity
0.004
Inclination
82.5961°
RAAN
37.125°
Arg. of periapsis
155.3769°
True anomaly
272.95068°
Mean anomaly
273.4084°
Eccentric anomaly
273.17955°
Mean motion
3.13992 °/min
Orbital period
114.65 mins
BSTAR
-0.00003246
Loading maneuver chart data...
Computing Atmospheric mass density...
Loading historical data...
Loading historical data...
Loading historical data...
Loading historical data...
Loading historical data...
Loading historical data...
Loading historical data...

Documentation

Showing up to 5 results
|